Find GGSE 5

NORAD ID: 2834 Int'l Des: 1967-053 Owner: NRO/NRL Country: US operational
LEOCIRCULAR

Current View

Loading 3D Globe...

About GGSE 5

Description loading...

Upcoming Passes

Passes for default location (London). Set your location on the main map for personalized predictions.

Altitude History

Loading altitude history...

Two-Line Element Set

1 2834U 67053D 26150.47351100 .00000040 00000-0 67557-4 0 9991
2 2834 69.9708 170.9819 0009808 242.0295 117.9818 13.96189106 3677
Epoch: May 30, 2026 • Age: 19 hours

Current Status

Altitude 916.1 km
Velocity 7.39 km/s
Sub-Earth Point -25.18°S, 178.48°E
Type other

Most Searched